Regional Weather Roundup
Issued by NWS Wakefield, VA

Home | Current Version | Previous Version | Text Only | Print | Product List | Glossary Off
Versions: 1 2 3 4 5 6 7 8 9 10 11 12 13 14 15 16 17 18 19 20 21 22 23 24 25 26 27 28 29 30 31 32 33 34 35 36 37 38 39 40 41 42 43 44 45 46 47 48 49 50

000
ASUS41 KAKQ 281510
RWRAKQ

REGIONAL WEATHER ROUNDUP
NATIONAL WEATHER SERVICE WAKEFIELD VA
1000 AM EST SUN DEC 28 2014

Note: "fair" indicates few or no clouds below 12,000 feet with no
significant weather and/or obstructions to visibility. * = Denotes
station may not report precipitation (e.g., rain,snow,etc.),
thunder or fog.

VAZ042-051-052>054-056-281600-
NORTHERN VIRGINIA

CITY           SKY/WX    TMP DP  RH WIND       PRES   REMARKS
WASH NATIONAL  CLOUDY    54  39  57 S3        29.99R
DULLES         CLOUDY    49  40  71 CALM      29.98S
FORT BELVOIR   CLOUDY    51  41  68 SE1       30.00R
QUANTICO       CLOUDY    49  39  68 E5        30.01R
FREDERICKSBRG* CLOUDY    57  40  54 W5        29.98R
STAFFORD*      CLOUDY    55  38  53 CALM      30.03R
WARRENTON      CLOUDY    56  45  66 S6        29.96F
CULPEPER*      CLOUDY    54  41  62 E3        29.98S
MANASSAS*      CLOUDY    52  43  71 SE3       29.97S
LEESBURG*      CLOUDY    50  41  71 CALM      29.98S
WINCHESTER     CLOUDY    52  32  46 CALM      29.96F
FRONT ROYAL*   CLOUDY    50  36  57 CALM      29.94F
LURAY*         CLOUDY    54  41  62 CALM      29.95F
$$

VAZ048-049-060>072-079>083-281600-
CENTRAL AND SOUTH CENTRAL VIRGINIA

CITY           SKY/WX    TMP DP  RH WIND       PRES   REMARKS
RICHMOND       CLOUDY    58  41  53 SW13      30.01F
CHESTERFIELD*  CLOUDY    55  36  47 SW9       30.01F
PETERSBURG*    CLOUDY    59  45  60 SW8       30.02F
HANOVER        CLOUDY    58  41  53 SW10      30.01R
TAPPAHANNOCK*  CLOUDY    58  38  45 SW8       30.00F
QUINTON*       CLOUDY    55  44  64 SW7       30.01F
CHARLOTTSVILLE CLOUDY    54  39  57 S9        29.96S
GORDONSVILLE*  CLOUDY    52  39  60 SW8       29.97S
ORANGE*        CLOUDY    54  39  58 S7        29.97F
LOUISA*        CLOUDY    55  41  58 SW8       29.96F
BUMPASS*       CLOUDY    55  40  56 SW6       29.98S
FARMVILLE*     CLOUDY    59  43  54 SW10      29.99R
CREWE*         PTSUNNY   55  42  60 SW6       30.01S
FORT PICKETT*  PTSUNNY   57  45  65 SW9       30.02R
CHASE CITY*    PTSUNNY   59  49  69 W3        30.04R
CLARKSVILLE*   PTSUNNY   55  46  71 S9        30.04R
SOUTH HILL*    PTSUNNY   59  49  70 SW10G17   30.09F
LAWRENCEVILLE* PTSUNNY   58  50  74 SW12G18   30.03F
EMPORIA*       CLOUDY    59  50  72 S9        30.06S
$$

VAZ088>098-281600-
SOUTHEAST VIRGINIA

CITY           SKY/WX    TMP DP  RH WIND       PRES   REMARKS
NORFOLK        CLOUDY    58  49  72 SW9       30.05R
VIRGINIA BEACH CLOUDY    59  51  75 SW9       30.06R
NORFOLK NAVAL  CLOUDY    62  50  64 SW9       30.07R
WEST POINT*    CLOUDY    59  44  58 S8        30.02F
SALUDA*        CLOUDY    56  45  66 SW14G25   29.99F
NEWPORT NEWS   CLOUDY    61  49  64 SW14      30.04F
LANGLEY AFB    CLOUDY    58  50  76 SW14      30.05S
FORT EUSTIS    CLOUDY    56  56  99 VRB5      30.03F
WILLIAMSBURG*  CLOUDY    61  52  72 SW10      30.05F
HR EXEC AP*    CLOUDY    57  50  77 SW8G17    30.08S
FRANKLIN*      CLOUDY    57  52  82 SW6       30.06R
WAKEFIELD      CLOUDY    58  49  72 VRB6      30.03F
$$

VAZ020-022-025-037-045-281600-
WEST CENTRAL AND SOUTHWEST VIRGINIA

CITY           SKY/WX    TMP DP  RH WIND       PRES   REMARKS
STAUNTON*      CLOUDY    58  44  60 SW7       29.98S
WAYNESBORO*    CLOUDY    56  42  60 SW6       29.98S
HOT SPRINGS VA CLOUDY    44  44 100 W16G24    29.98R
LYNCHBURG      PTSUNNY   55  38  52 SW8       30.02R
DANVILLE       PTSUNNY   56  43  61 SW8       30.05R
SOUTH BOSTON*  PTSUNNY   58  44  60 SW9       30.04R
MARTINSVILLE   PTSUNNY   55  43  64 SW3       30.07S
ROANOKE        CLOUDY    56  34  43 W3        30.03R
BLACKSBURG     CLOUDY    50  35  55 W6        30.07R
DUBLIN*        CLOUDY    51  38  60 SW7       30.07R
MARION*        CLOUDY    45  42  89 W9        30.09R FOG
HILLSVILLE*    CLOUDY    50  34  54 CALM      30.05S
RICHLANDS*     HVY RAIN  46  44  95 CALM      30.08R
WISE*          RAIN      46  46 100 N3        30.09R
ABINGDON*      CLOUDY    49  39  69 N3        30.08R
$$

MDZ021>025-VAZ099-100-281600-
SOUTHERN MARYLAND AND THE DELMARVA PENINSULA

CITY           SKY/WX    TMP DP  RH WIND       PRES   REMARKS
PATUXENT RIVER CLOUDY    56  39  53 W7        29.98R
BAY BRIDGE APT   N/A     52  39  62 SW3       29.99R
LEONARDTOWN    CLOUDY    54  37  54 W8        30.00S
DOVER          CLOUDY    50  43  76 SW9       29.94S
GEORGETOWN     CLOUDY    54  40  59 SW7       29.99R
EASTON         PTSUNNY   54  46  76 SW6       30.03R
CAMBRIDGE      CLOUDY    54  43  66 CALM      29.98F
SALISBURY      CLOUDY    58  42  55 W13       30.00R
OCEAN CITY     CLOUDY    56  42  59 W16G24    29.98R
WALLOPS ISLAND CLOUDY    60  45  57 W9G21     30.01R
ACCOMACK*      PTSUNNY   59  46  63 SW15G24   30.00F
$$

NCZ012>017-030>032-281600-
NORTH CENTRAL AND EASTERN NORTH CAROLINA

CITY           SKY/WX    TMP DP  RH WIND       PRES   REMARKS
ROANOKE RAPIDS PTSUNNY   55  50  82 SW12      30.06S
RALEIGH        CLOUDY    57  50  77 SW13      30.08S
ELIZABETH CITY CLOUDY    60  52  74 SW9       30.08R
AHOSKIE*       PTSUNNY   57  51  81 SW3       30.07R
EDENTON*       CLOUDY    58  53  83 SW9       30.08F
CURRITUCK*     LGT RAIN  57  50  78 S7        30.08S
KILL DEVIL HLS CLOUDY    57  54  91 SW6       30.08R
MANTEO         CLOUDY    55  54  94 SW5       30.10R
CAPE HATTERAS  CLOUDY    63  60  90 SW8       30.11S
TARBORO*       CLOUDY    60  52  75 SW8       30.09S
GOLDSBORO      CLOUDY    60  59  98 SW9       30.09S
WASHINGTON     DRIZZLE   58  55  88 SW6       30.10R
GREENVILLE     CLOUDY    61  54  77 SW15      30.10F
NEW BERN       CLOUDY    64  55  72 SW8       30.12S
WILMINGTON     MOSUNNY   64  55  72 S9        30.12F
$$

VAZ048-281600-
ELSEWHERE

CITY           SKY/WX    TMP DP  RH WIND       PRES   REMARKS
HARRISBURG PA  PTSUNNY   43  40  89 CALM      29.96S
BALTIMORE      CLOUDY    49  41  74 SW3       29.96R
ANNAPOLIS      CLOUDY    46  40  79 CALM      29.98R
ANDREWS AFB    CLOUDY    53  41  65 SW5       29.97S
PHILADELPHIA   CLOUDY    46  41  82 W7        29.97R
HENDERSON NC   CLOUDY    57  48  72 SW12G18   30.06S
GREENSBORO     CLOUDY    55  48  77 SW14      30.05R
ROCKY MOUNT    CLOUDY    61  52  72 SW10      30.08S
$$

VAZ100-281600-
MARINE

STATION/POSITION TIME  TEMP    WIND        PRES    WAVE   SWELL
                       AIR SEA DIR/SP/G            HT/PER HT/PER
                 (UTC) (F)     (DEG/KT/KT) (MB)    (FT/S) (FT/S)
CAPE MAY NJ      1500   48 46  230/  6/  7 1014.5S
LEWES DE         1500   54 44  250/ 10/ 13 1014.7F
15NM E FENWICK I 1500   48 45              1015.4R   4/ 5
OCEAN-CITY-INLET 1500   53 45  270/  7/  9 1015.3R
WACHAPREAGUE VA  1500   58 47  220/ 10/ 16 1016.2F
THOMAS POINT MD  1500   49 43  210/  7/  7 1016.4R
GOOSES REEF MD   1500   48      CALM  /  2 1014.7R
COVE POINT MD    1500   53      30/  4/  5 1015.4S
SOLOMONS ISLAND  1500      44                N/A
BISHOPS HEAD MD  1500   51 45  260/  4/  7 1015.3R
PINEY POINT MD   1500          300/  3/  4   N/A
POTOMAC MD       1500   51     260/  8/ 10 1014.8S
CAMBRIDGE MD     1500   53 43  170/  2/  3 1015.3R
LEWISETTA VA     1500   56 45  240/ 13/ 16 1015.1F
RAPPAHANNOCK LGT 1500          180/ 13/ 14 1017.1R
STINGRAY PT      1500   52     230/ 14/ 16 1016.8R
YORK RVR RNG VA  1500   54     230/ 15/ 18 1016.2F
YORKTOWN VA      1500   56 46  220/ 11/ 15 1016.6F
JAMESTOWN VA     1500   55     250/  8/ 12   N/A
DOMINION TERM VA 1500   54     250/  9/ 11 1017.6R
KIPTOPEKE VA     1500      51  180/  5/  5   N/A
CHES BAY BRIDGE  1500   54 46  200/  9/ 10 1017.3R
CAPE HENRY VA    1500   58     230/  8/ 12 1016.5S
CHESAPEAKE LGHT  1400   53     220/ 17/ 17 1018.5R
WILLOUBY STN VA  1500   54     230/  9/ 10 1017.9F
S CRANEY ISL VA  1500          220/  7/ 10 1017.5S
CAPE HENRY BUOY  1500      47                N/A     2/14   2/14
1ST LANDING BUOY 1500   52     230/  6/  8 1017.4F
CAPE CHARLES BUO 1500      47                N/A     2/13   2/13
64NM E OF VA BCH 1500   56 53  220/ 14/ 16 1017.9R   3/14   3/14
DUCK PIER NC     1500   56 49  220/  7/ 10 1018.1R
44100 DUCK FRF   1500      50                N/A     3/13   3/13
44056 DUCK FRF   1500      48                N/A     2/13   2/13
OREGON INLET NC  1500   53 53  190/  9/ 10 1019.2R
HATTERAS NC      1500   62 54  220/  7/ 10 1019.9F
DIAMOND SHLS NC  1500   72                 1019.7R   4/14
CAPE LOOKOUT NC  1400   65     210/  8/ 13 1020.0R
$$


USA.gov is the U.S. government's official web portal to all federal, state and local government web resources and services.